Weather History for Winnemucca, NV

Change the Weather History Date:

Sunday, October 14, 2012

  Actual Average Record
Temperature  
Mean Temperature 55 °F 49 °F  
Max Temperature 76 °F 68 °F 86 °F (1973)
Min Temperature 34 °F 30 °F 11 °F (1966)
Degree Days  
Heating Degree Days 10 16  
Month to date heating degree days 149 190  
Since 1 July heating degree days 227 394  
Cooling Degree Days 0 0  
Month to date cooling degree days 0 0  
Year to date cooling degree days 681 541  
Growing Degree Days 4 (Base 50)    
Moisture  
Dew Point 30 °F    
Average Humidity 47    
Maximum Humidity 75    
Minimum Humidity 19    
Precipitation  
Precipitation 0.00 in 0.03 in 0.61 in (1938)
Month to date precipitation T 0.29  
Year to date precipitation 3.41 6.09  
Snow  
Snow 0.00 in 0.00 in 6.00 in (1899)
Month to date snowfall 0.0 0.1  
Since 1 July snowfall 0.0 0.1  
Since 1 September snowfall 0.0 0.1  
Snow Depth 0.00 in    
Sea Level Pressure  
Sea Level Pressure 30.20 in    
Wind  
Wind Speed 7 mph (SSE)    
Max Wind Speed 14 mph    
Max Gust Speed 18 mph    
Visibility 10 miles    
Events      
T = Trace of Precipitation, MM = Missing Value Source: NWS Daily Summary

Daily Weather History Graph

Daily Weather History Graph

Search for Another Location

Airport:

Trip Planner

Search our weather history database for the weather conditions in past years. The results will help you decide how hot, cold, wet, or windy it might be!

Date:

Astronomy

Oct. 14, 2012 Rise Set
Actual Time 7:02 AM PDT 6:11 PM PDT
Civil Twilight 6:34 AM PDT 6:38 PM PDT
Nautical Twilight 6:02 AM PDT 7:10 PM PDT
Astronomical Twilight 5:30 AM PDT 7:42 PM PDT
Moon 6:06 AM PDT (10/14) 5:34 PM PDT (10/14)
Length of Visible Light 12h 04m
Length of Day
11h 09m
Waning Crescent, 1% of the Moon is Illuminated
Oct 14
Waning Crescent
Oct 15
New
Oct 21
First Quarter
Oct 29
Full
Nov 6
Last Quarter

Hourly Weather History & Observations

Time (PDT) Temp. Windchill Dew Point Humidity Pressure Visibility Wind Dir Wind Speed Gust Speed Precip Events Conditions
12:56 AM 39.0 °F 35.7 °F 28.0 °F 65% 30.27 in 10.0 mi SSE 4.6 mph - N/A   Clear
1:56 AM 37.0 °F 33.3 °F 28.0 °F 70% 30.30 in 10.0 mi ESE 4.6 mph - N/A   Clear
2:56 AM 39.9 °F 35.1 °F 30.0 °F 68% 30.28 in 10.0 mi ESE 6.9 mph - N/A   Clear
3:56 AM 35.1 °F 29.3 °F 26.1 °F 70% 30.28 in 10.0 mi SSE 6.9 mph - N/A   Clear
4:56 AM 37.0 °F 31.6 °F 28.9 °F 73% 30.27 in 10.0 mi SE 6.9 mph - N/A   Clear
5:56 AM 35.1 °F 29.3 °F 28.0 °F 76% 30.30 in 10.0 mi SE 6.9 mph - N/A   Clear
6:56 AM 35.1 °F 28.6 °F 28.0 °F 76% 30.32 in 10.0 mi SE 8.1 mph - N/A   Clear
7:56 AM 37.0 °F - 28.9 °F 73% 30.33 in 10.0 mi Calm Calm - N/A   Clear
8:56 AM 52.0 °F - 35.1 °F 53% 30.31 in 10.0 mi ENE 6.9 mph - N/A   Clear
9:56 AM 57.9 °F - 35.1 °F 42% 30.29 in 10.0 mi ENE 5.8 mph - N/A   Clear
10:56 AM 64.0 °F - 35.1 °F 34% 30.25 in 10.0 mi NNE 9.2 mph - N/A   Clear
11:56 AM 69.1 °F - 35.1 °F 29% 30.22 in 10.0 mi Variable 3.5 mph - N/A   Clear
12:56 PM 72.0 °F - 33.1 °F 24% 30.20 in 10.0 mi Variable 4.6 mph - N/A   Clear
1:56 PM 75.0 °F - 33.1 °F 22% 30.16 in 10.0 mi West 8.1 mph - N/A   Clear
2:56 PM 75.0 °F - 30.9 °F 20% 30.13 in 10.0 mi ESE 8.1 mph 18.4 mph N/A   Clear
3:56 PM 75.9 °F - 30.9 °F 19% 30.11 in 10.0 mi SSW 9.2 mph 16.1 mph N/A   Clear
4:56 PM 73.9 °F - 30.9 °F 21% 30.10 in 10.0 mi WSW 9.2 mph - N/A   Clear
5:56 PM 66.9 °F - 28.9 °F 24% 30.12 in 10.0 mi WSW 6.9 mph - N/A   Clear
6:56 PM 57.0 °F - 27.0 °F 32% 30.13 in 10.0 mi SW 8.1 mph - N/A   Clear
7:56 PM 54.0 °F - 28.9 °F 38% 30.13 in 10.0 mi SE 8.1 mph - N/A   Clear
8:56 PM 59.0 °F - 27.0 °F 29% 30.08 in 10.0 mi South 13.8 mph - N/A   Clear
9:56 PM 53.1 °F - 26.1 °F 35% 30.09 in 10.0 mi Calm Calm - N/A   Clear
10:56 PM 48.0 °F - 27.0 °F 44% 30.08 in 10.0 mi SE 6.9 mph - N/A   Clear
11:56 PM 55.9 °F - 27.0 °F 33% 30.03 in 10.0 mi South 9.2 mph - N/A   Clear